Location: Roswell
(33.3940°N, 104.5230°W)
Time: 22:56:33
(UTC-06:00)

Tiangong - Visible Passes

Search period start: 25 October 2021 00:00
Search period end: 04 November 2021 00:00
Orbit: 381 x 390 km, 41.5° (Epoch: 25 October)

Date Brightness Start Highest point End Pass type
(mag) Time Alt. Az. Time Alt. Az. Time Alt. Az.
25 Oct 2.9 19:05:17 10° NW 19:07:47 21° N 19:09:11 16° NE visible
26 Oct 2.3 19:42:27 10° NW 19:44:49 32° N 19:44:49 32° N visible
27 Oct 2.5 18:43:02 10° NW 18:45:47 26° NNE 18:48:16 12° ENE visible
27 Oct 4.0 20:19:40 10° WNW 20:20:30 17° WNW 20:20:30 17° WNW visible
28 Oct 1.1 19:20:05 10° WNW 19:23:15 62° NNE 19:24:01 44° E visible
29 Oct 2.8 19:57:28 10° W 19:59:53 31° SW 19:59:53 31° SW visible
30 Oct 1.3 18:57:38 10° WNW 19:00:48 68° SSW 19:03:39 12° SE visible
31 Oct 3.8 19:35:34 10° W 19:37:42 17° SW 19:39:51 10° S visible
01 Nov 2.9 18:35:14 10° W 18:38:07 32° SW 18:41:00 10° SSE visible
